Location: Unspecified
(0.0000°N, 0.0000°E)
Time: 03:13:55
(UTC+00:00)

STARLINK-32289 - Visible Passes

Search period start: 04 October 2024 00:00
Search period end: 14 October 2024 00:00
Orbit: 474 x 476 km, 53.2° (Epoch: 03 October)

Date Brightness Start Highest point End Pass type
(mag) Time Alt. Az. Time Alt. Az. Time Alt. Az.
11 Oct 5.4 19:11:11 10° NNW 19:12:15 17° N 19:12:15 17° N visible
12 Oct 4.1 18:42:17 10° N 18:45:33 30° NE 18:46:11 28° ENE visible
13 Oct 4.5 18:13:30 10° N 18:16:33 24° NE 18:19:36 10° ESE visible
13 Oct 6.4 19:52:35 10° W 19:54:17 13° SW 19:54:51 12° SW visible
